Home > Weather > Bogota > Past weeks

Flag for Colombia Past Weather in Bogota, Colombia — Yesterday and Last 2 Weeks

Now
55 °F

Passing clouds.


Feels Like: 55 °F
Forecast: 50 / 62 °F
Wind: 2 mph from North

Location: Bogota / Eldorado

Current Time: Aug 26, 2016 at 2:04:07 AM

Latest Report: Aug 26, 2016 at 1:00 AM


Visibility: N/A

Pressure: 30.31 "Hg (22.17 "Hg at 2618m altitude)

Humidity: 82%

Dew Point: 50 °F

Location of BogotaLocation

Past Weather in Bogota — Graph

°F

Bogota Temperature Yesterday

Maximum temperature yesterday: 66 °F (at 12:00 PM)
Minimum temperature yesterday: 50 °F (at 6:00 AM)
Average temperature yesterday: 58 °F

High & Low Weather Summary for the Past Weeks

 TemperatureHumidityPressure
High68 °F (Aug 12, 2:00 PM)100% (Aug 24, 6:00 AM)30.45 "Hg (Aug 24, 6:00 AM)
Low41 °F (Aug 20, 6:00 AM)32% (Aug 20, 4:00 PM)30.25 "Hg (Aug 25, 4:00 PM)
Average57 °F70%30.35 "Hg
* Reported Aug 11 1:00 AM — Aug 26 1:00 AM, Bogota, Weather by CustomWeather, © 2016

Note: Actual official high and low records may vary slightly from our data, if they occured in-between our weather recording intervals... More about our weather records

Advertising

Bogota Weather History for the Previous 24 Hours

Scroll right to see more
 ConditionsComfort  
Time TempWeatherWind HumidityBarometerVisibility
1:00 AM
Fri, Aug 26
55 °FPassing clouds.2 mph82%30.31 "HgN/A
12:00 AM52 °FPassing clouds.2 mph94%30.34 "HgN/A
11:00 PM
Thu, Aug 25
54 °FPassing clouds.3 mph88%30.37 "HgN/A
10:00 PM54 °FScattered showers. Passing clouds.2 mph88%30.37 "HgN/A
9:00 PM55 °FScattered showers. Partly cloudy.5 mph88%30.36 "HgN/A
8:00 PM55 °FPassing clouds.7 mph88%30.33 "Hg6 mi
7:00 PM59 °FScattered showers. Passing clouds.7 mph68%30.30 "HgN/A
6:00 PM61 °FScattered clouds.5 mph63%30.28 "HgN/A
5:00 PM61 °FScattered clouds.9 mph63%30.27 "HgN/A
4:00 PM63 °FScattered clouds.10 mph64%30.25 "HgN/A
3:00 PM64 °FScattered clouds.10 mph56%30.26 "HgN/A
2:00 PM66 °FScattered clouds.8 mph46%30.27 "HgN/A
1:00 PM66 °FScattered clouds.14 mph46%30.29 "HgN/A
12:00 PM66 °FBroken clouds.13 mph52%30.31 "HgN/A
11:00 AM64 °FPartly sunny.6 mph52%30.34 "HgN/A
10:00 AM61 °FBroken clouds.3 mph63%30.36 "HgN/A
9:00 AM59 °FScattered clouds.6 mph72%30.36 "HgN/A
8:00 AM55 °FScattered clouds.6 mph82%30.36 "HgN/A
7:00 AM54 °FScattered clouds.3 mph94%30.34 "HgN/A
6:00 AM50 °FFog.2 mph94%30.32 "Hg5 mi
5:30 AM52 °FPassing clouds.2 mph88%30.33 "HgN/A
5:00 AM52 °FPassing clouds.2 mph88%30.32 "HgN/A
4:00 AM54 °FPartly cloudy.2 mph82%30.32 "HgN/A
3:00 AM55 °FScattered showers. Partly cloudy.3 mph82%30.31 "HgN/A
2:00 AM55 °FPartly cloudy.5 mph82%30.32 "HgN/A
Weather by CustomWeather, © 2016

See weather overviewHow to use our weather pages